Regional Weather Roundup
Issued by NWS Jackson, KY

Home | Current Version | Previous Version | Text Only | Print | Product List | Glossary Off
Versions: 1 2 3 4 5 6 7 8 9 10 11 12 13 14 15 16 17 18 19 20 21 22 23 24 25 26 27

000
ASUS43 KJKL 280610
RWRJKL

EAST KENTUCKY HOURLY WEATHER ROUNDUP
NATIONAL WEATHER SERVICE JACKSON KY
200 AM EDT WED JUN 28 2017

NOTE: "FAIR" INDICATES FEW OR NO CLOUDS BELOW 12,000 FEET WITH
NO SIGNIFICANT WEATHER AND/OR OBSTRUCTIONS TO VISIBILITY.

* THESE REPORTS ARE NOT UNDER NWS QUALITY CONTROL AND MAY NOT
  REPORT WEATHER SUCH AS PRECIPITATION AND FOG.

KYZ079-080-083-085-087-088-110-112-115-119-120-280700
...EASTERN KENTUCKY...

CITY           SKY/WX    TMP DP  RH WIND       PRES   REMARKS
JACKSON        CLEAR     59  49  69 CALM      30.17R
6HR MIN TEMP:  59; 6HR MAX TEMP:  71;

LONDON         CLEAR     56  51  84 CALM      30.16S
6HR MIN TEMP:  55; 6HR MAX TEMP:  74;

SOMERSET*      CLEAR     54  54 100 CALM      30.17S
MONTICELLO*    CLEAR     53  51  93 NE9       30.17S
6HR MIN TEMP:  53; 6HR MAX TEMP:  73;

WILLIAMSBURG*  CLEAR     54  54 100 CALM      30.16S
MIDDLESBORO*   CLEAR     53  53  97 CALM      30.18S
6HR MIN TEMP:  53; 6HR MAX TEMP:  73;

HARLAN APT*    CLEAR     52  50  93 CALM      30.19S
PIKE CO APT*     N/A     58  50  75 S5        30.18R
BIG SANDY APT* CLEAR     57  52  83 CALM      30.18R
6HR MIN TEMP:  55; 6HR MAX TEMP:  71;

MOREHEAD APT*  CLEAR     55  52  88 CALM      30.18S
ASHLAND*       CLEAR     55  54  94 CALM      30.14R
$$

KYZ035-036-041-042-044-050-067-078-099-280700
...CENTRAL KENTUCKY...

CITY           SKY/WX    TMP DP  RH WIND       PRES   REMARKS
MT STERLING*   CLEAR     52  52 100 CALM      30.18S
FLEMING/MASON* CLEAR     56  51  84 S5        30.17S
DANVILLE*      CLEAR     54  50  87 CALM      30.17S
LEXINGTON      CLEAR     56  49  77 S5        30.16R
6HR MIN TEMP:  56; 6HR MAX TEMP:  74;

FRANKFORT      CLEAR     56  51  84 CALM      30.14R
6HR MIN TEMP:  55; 6HR MAX TEMP:  75;

LOUISVILLE     CLEAR     66  51  58 CALM      30.13S
6HR MIN TEMP:  66; 6HR MAX TEMP:  77;

LEBANON*         N/A     59  52  77 CALM      30.15S
GLASGOW*       CLEAR     58  58 100 CALM      30.13S
BOWLING GREEN  CLEAR     61  57  87 CALM      30.12S
6HR MIN TEMP:  60; 6HR MAX TEMP:  78;

$$

KYZ091>093-OHZ055-061-077-WVZ005-015-034-035-042-280700
...SOUTHERN OHIO/WEST VIRGINIA...

CITY           SKY/WX    TMP DP  RH WIND       PRES   REMARKS
COVINGTON      PTCLDY    55  54  96 S3        30.14S
COLUMBUS       CLEAR     54  51  90 CALM      30.13S
DAYTON         CLEAR     57  46  66 S6        30.14F
WILMINGTON     CLEAR     55  53  93 CALM      30.15R
HUNTINGTON     CLEAR     55  51  86 CALM      30.15R
CHARLESTON     CLEAR     54  52  93 CALM      30.15S
PINEVILLE*     CLEAR     50  49  96 MISG      30.24R
BECKLEY        CLEAR     51  46  83 SE3       30.20R
BLUEFIELD      CLEAR     55  43  63 CALM      30.22R
LOGAN CO APT*    N/A     57  50  77 CALM      30.17R
$$

VAZ002-007-008-TNZ017-027-036-066-071-280700
...SOUTHWEST VIRGINIA/EAST TENNESSEE...

CITY           SKY/WX    TMP DP  RH WIND       PRES   REMARKS
WISE*          CLEAR     55  45  67 CALM      30.23R
JONESVILLE*      N/A     52  50  93 CALM      30.20R
ABINGDON*      CLEAR     55  51  86 CALM      30.19S
BRISTOL        CLEAR     53  51  93 CALM      30.17S
MORRISTOWN*    PTCLDY    59  54  82 CALM      30.15R
SEVIERVILLE*   CLEAR     55  50  82 CALM      30.15R
KNOXVILLE      CLEAR     58  54  86 CALM      30.13S
LAFOLLETTE*    CLEAR     54  54 100 CALM      30.19S
OAK RIDGE      CLEAR     58  55  90 CALM      30.15F
CROSSVILLE     CLEAR     54  52  93 CALM      30.17S
NASHVILLE      CLEAR     65  58  78 CALM      30.11F
$$

...KEY TO REMARKS...
VSB - VISIBILITY IN MILES
WCI - WIND CHILL INDEX
HX  - HEAT INDEX

$$




USA.gov is the U.S. government's official web portal to all federal, state and local government web resources and services.